Time,TemperatureF,DewpointF,PressureIn,WindDirection,WindDirectionDegrees,WindSpeedMPH,WindSpeedGustMPH,Humidity,HourlyPrecipIn,Conditions,Clouds,dailyrainin,SoftwareType,DateUTC
2013-05-18 00:01:00,49.3,35.7,29.94,WSW,247,0.0,0.0,59,0.00,,,0.00,WUHU21623XXSP,2013-05-18 07:01:00,
2013-05-18 00:06:00,49.1,35.5,29.93,WSW,247,0.0,0.0,59,0.00,,,0.00,WUHU21623XXSP,2013-05-18 07:06:00,
2013-05-18 00:11:00,49.1,35.5,29.94,WSW,247,0.0,0.0,59,0.00,,,0.00,WUHU21623XXSP,2013-05-18 07:11:00,
2013-05-18 00:16:00,49.1,35.5,29.93,WSW,247,0.0,0.0,59,0.00,,,0.00,WUHU21623XXSP,2013-05-18 07:16:00,
2013-05-18 00:21:00,49.3,35.2,29.93,WSW,247,0.0,0.0,58,0.00,,,0.00,WUHU21623XXSP,2013-05-18 07:21:00,
2013-05-18 00:26:00,49.4,35.3,29.93,WSW,247,0.0,0.0,58,0.00,,,0.00,WUHU21623XXSP,2013-05-18 07:26:00,
2013-05-18 00:31:00,49.4,35.3,29.93,WSW,247,0.0,0.0,58,0.00,,,0.00,WUHU21623XXSP,2013-05-18 07:31:00,
2013-05-18 00:36:00,49.3,35.2,29.93,WSW,247,0.0,0.0,58,0.00,,,0.00,WUHU21623XXSP,2013-05-18 07:36:00,
2013-05-18 00:41:00,48.9,34.8,29.93,WSW,247,0.0,0.0,58,0.00,,,0.00,WUHU21623XXSP,2013-05-18 07:41:00,
2013-05-18 00:46:00,48.5,34.5,29.93,WSW,247,4.9,5.8,58,0.00,,,0.00,WUHU21623XXSP,2013-05-18 07:46:00,
2013-05-18 00:51:00,48.2,34.6,29.93,WSW,247,0.0,5.8,59,0.00,,,0.00,WUHU21623XXSP,2013-05-18 07:51:00,
2013-05-18 00:56:00,47.8,34.2,29.93,WSW,247,0.0,4.9,59,0.00,,,0.00,WUHU21623XXSP,2013-05-18 07:56:00,
2013-05-18 01:01:00,47.8,34.2,29.93,WSW,247,0.0,0.0,59,0.00,,,0.00,WUHU21623XXSP,2013-05-18 08:01:00,
2013-05-18 01:06:00,47.5,34.0,29.93,WSW,247,0.0,0.0,59,0.00,,,0.00,WUHU21623XXSP,2013-05-18 08:06:00,
2013-05-18 01:11:00,47.3,33.8,29.93,WSW,247,0.0,0.0,59,0.00,,,0.00,WUHU21623XXSP,2013-05-18 08:11:00,
2013-05-18 01:16:00,47.1,33.6,29.93,WSW,247,0.0,0.0,59,0.00,,,0.00,WUHU21623XXSP,2013-05-18 08:16:00,
2013-05-18 01:21:00,47.1,33.6,29.93,WSW,247,0.0,0.0,59,0.00,,,0.00,WUHU21623XXSP,2013-05-18 08:21:00,
2013-05-18 01:26:00,46.7,33.2,29.93,WSW,247,0.0,0.0,59,0.00,,,0.00,WUHU21623XXSP,2013-05-18 08:26:00,
2013-05-18 01:31:00,46.7,33.2,29.92,WSW,247,0.0,0.0,59,0.00,,,0.00,WUHU21623XXSP,2013-05-18 08:31:00,
2013-05-18 01:36:00,46.6,33.1,29.92,WSW,247,0.0,0.0,59,0.00,,,0.00,WUHU21623XXSP,2013-05-18 08:36:00,
2013-05-18 01:41:00,46.4,32.9,29.92,WSW,247,0.0,0.0,59,0.00,,,0.00,WUHU21623XXSP,2013-05-18 08:41:00,
2013-05-18 01:46:00,46.4,32.9,29.92,WSW,247,0.0,0.0,59,0.00,,,0.00,WUHU21623XXSP,2013-05-18 08:46:00,
2013-05-18 01:51:00,46.4,32.9,29.92,WSW,247,0.0,0.0,59,0.00,,,0.00,WUHU21623XXSP,2013-05-18 08:51:00,
2013-05-18 01:56:00,46.6,33.1,29.92,WSW,247,0.0,0.0,59,0.00,,,0.00,WUHU21623XXSP,2013-05-18 08:56:00,
2013-05-18 02:01:00,46.7,33.2,29.92,WSW,247,0.0,0.0,59,0.00,,,0.00,WUHU21623XXSP,2013-05-18 09:01:00,
2013-05-18 02:06:00,47.1,33.6,29.92,WSW,247,0.0,0.0,59,0.00,,,0.00,WUHU21623XXSP,2013-05-18 09:06:00,
2013-05-18 02:11:00,47.3,34.2,29.92,WSW,247,0.0,0.0,60,0.00,,,0.00,WUHU21623XXSP,2013-05-18 09:11:00,
2013-05-18 02:16:00,47.3,34.2,29.93,WSW,247,0.0,0.9,60,0.00,,,0.00,WUHU21623XXSP,2013-05-18 09:16:00,
2013-05-18 02:21:00,47.1,34.0,29.93,WSW,247,0.0,0.9,60,0.00,,,0.00,WUHU21623XXSP,2013-05-18 09:21:00,
2013-05-18 02:26:00,47.1,34.0,29.93,WSW,247,0.0,0.0,60,0.00,,,0.00,WUHU21623XXSP,2013-05-18 09:26:00,
2013-05-18 02:31:00,46.9,34.2,29.93,WSW,247,0.0,0.0,61,0.00,,,0.00,WUHU21623XXSP,2013-05-18 09:31:00,
2013-05-18 02:36:00,46.9,34.6,29.93,WSW,247,0.0,0.0,62,0.00,,,0.00,WUHU21623XXSP,2013-05-18 09:36:00,
2013-05-18 02:41:00,46.9,34.6,29.93,WSW,247,0.0,0.0,62,0.00,,,0.00,WUHU21623XXSP,2013-05-18 09:41:00,
2013-05-18 02:46:00,46.9,34.6,29.93,WSW,247,0.0,0.0,62,0.00,,,0.00,WUHU21623XXSP,2013-05-18 09:46:00,
2013-05-18 02:51:00,47.1,34.8,29.93,WSW,247,0.0,0.0,62,0.00,,,0.00,WUHU21623XXSP,2013-05-18 09:51:00,
2013-05-18 02:56:00,47.1,35.2,29.92,WSW,247,0.0,0.0,63,0.00,,,0.00,WUHU21623XXSP,2013-05-18 09:56:00,
2013-05-18 03:01:00,47.3,35.8,29.93,WSW,247,0.0,0.0,64,0.00,,,0.00,WUHU21623XXSP,2013-05-18 10:01:00,
2013-05-18 03:06:00,47.3,35.8,29.92,WSW,247,0.0,0.0,64,0.00,,,0.00,WUHU21623XXSP,2013-05-18 10:06:00,
2013-05-18 03:11:00,47.6,36.5,29.93,SW,225,0.0,4.9,65,0.00,,,0.00,WUHU21623XXSP,2013-05-18 10:11:00,
2013-05-18 03:16:00,47.6,36.9,29.93,SW,225,0.0,4.9,66,0.00,,,0.00,WUHU21623XXSP,2013-05-18 10:16:00,
2013-05-18 03:21:00,47.8,37.5,29.93,SW,225,0.0,4.5,67,0.00,,,0.00,WUHU21623XXSP,2013-05-18 10:21:00,
2013-05-18 03:26:00,47.8,37.5,29.93,SW,225,0.0,4.5,67,0.00,,,0.00,WUHU21623XXSP,2013-05-18 10:26:00,
2013-05-18 03:31:00,48.2,38.2,29.93,SW,225,0.0,0.7,68,0.00,,,0.00,WUHU21623XXSP,2013-05-18 10:31:00,
2013-05-18 03:36:00,48.5,38.5,29.93,SW,225,0.0,2.5,68,0.00,,,0.00,WUHU21623XXSP,2013-05-18 10:36:00,
2013-05-18 03:41:00,48.7,38.7,29.93,SW,225,4.7,6.7,68,0.00,,,0.00,WUHU21623XXSP,2013-05-18 10:41:00,
2013-05-18 03:46:00,48.7,38.7,29.93,SW,225,4.5,6.7,68,0.00,,,0.00,WUHU21623XXSP,2013-05-18 10:46:00,
2013-05-18 03:51:00,48.7,38.7,29.93,SSW,202,5.8,8.3,68,0.00,,,0.00,WUHU21623XXSP,2013-05-18 10:51:00,
2013-05-18 03:56:00,49.1,39.5,29.93,SW,225,5.1,9.4,69,0.00,,,0.00,WUHU21623XXSP,2013-05-18 10:56:00,
2013-05-18 04:01:00,49.4,39.8,29.93,SSW,202,7.2,9.8,69,0.00,,,0.00,WUHU21623XXSP,2013-05-18 11:01:00,
2013-05-18 04:06:00,49.6,40.0,29.93,SSW,202,7.6,9.8,69,0.00,,,0.00,WUHU21623XXSP,2013-05-18 11:06:00,
2013-05-18 04:11:00,49.6,40.0,29.93,SSW,202,6.3,8.9,69,0.00,,,0.00,WUHU21623XXSP,2013-05-18 11:11:00,
2013-05-18 04:16:00,49.6,40.3,29.93,SSW,202,5.4,8.9,70,0.00,,,0.00,WUHU21623XXSP,2013-05-18 11:16:00,
2013-05-18 04:21:00,49.6,40.3,29.93,SSW,202,5.6,8.9,70,0.00,,,0.00,WUHU21623XXSP,2013-05-18 11:21:00,
2013-05-18 04:26:00,49.6,40.3,29.93,SSW,202,4.3,8.1,70,0.00,,,0.00,WUHU21623XXSP,2013-05-18 11:26:00,
2013-05-18 04:31:00,49.6,40.3,29.93,SSW,202,6.9,7.6,70,0.00,,,0.00,WUHU21623XXSP,2013-05-18 11:31:00,
2013-05-18 04:36:00,49.6,40.3,29.93,SSW,202,0.0,7.8,70,0.00,,,0.00,WUHU21623XXSP,2013-05-18 11:36:00,
2013-05-18 04:41:00,49.6,40.3,29.93,SSW,202,0.0,7.8,70,0.00,,,0.00,WUHU21623XXSP,2013-05-18 11:41:00,
2013-05-18 04:46:00,49.4,39.8,29.92,SSW,202,0.0,0.0,69,0.00,,,0.00,WUHU21623XXSP,2013-05-18 11:46:00,
2013-05-18 04:51:00,49.3,39.3,29.93,SSW,202,0.0,0.0,68,0.00,,,0.00,WUHU21623XXSP,2013-05-18 11:51:00,
2013-05-18 04:56:00,49.1,38.7,29.93,SW,225,0.0,0.0,67,0.00,,,0.00,WUHU21623XXSP,2013-05-18 11:56:00,
2013-05-18 05:01:00,48.9,38.5,29.93,SW,225,0.0,0.0,67,0.00,,,0.00,WUHU21623XXSP,2013-05-18 12:01:00,
2013-05-18 05:06:00,48.7,38.0,29.92,SW,225,0.0,0.0,66,0.00,,,0.00,WUHU21623XXSP,2013-05-18 12:06:00,
2013-05-18 05:11:00,48.7,38.0,29.92,SW,225,0.0,0.0,66,0.00,,,0.00,WUHU21623XXSP,2013-05-18 12:11:00,
2013-05-18 05:16:00,48.5,37.8,29.92,SW,225,0.0,0.0,66,0.00,,,0.00,WUHU21623XXSP,2013-05-18 12:16:00,
2013-05-18 05:21:00,48.5,37.4,29.93,SW,225,0.0,0.0,65,0.00,,,0.00,WUHU21623XXSP,2013-05-18 12:21:00,
2013-05-18 05:25:00,48.2,37.1,29.93,SW,225,0.0,0.0,65,0.00,,,0.00,WUHU21623XXSP,2013-05-18 12:25:00,
2013-05-18 05:30:00,47.8,36.7,29.93,SW,225,0.0,0.0,65,0.00,,,0.00,WUHU21623XXSP,2013-05-18 12:30:00,
2013-05-18 05:35:00,47.8,36.7,29.93,SW,225,0.0,4.5,65,0.00,,,0.00,WUHU21623XXSP,2013-05-18 12:35:00,
2013-05-18 05:40:00,47.8,36.7,29.93,SW,225,0.0,4.5,65,0.00,,,0.00,WUHU21623XXSP,2013-05-18 12:40:00,
2013-05-18 05:45:00,48.2,37.1,29.93,SW,225,0.0,0.0,65,0.00,,,0.00,WUHU21623XXSP,2013-05-18 12:45:00,
2013-05-18 05:50:00,47.8,36.7,29.93,SW,225,0.0,0.0,65,0.00,,,0.00,WUHU21623XXSP,2013-05-18 12:50:00,
2013-05-18 05:55:00,47.6,36.5,29.93,SW,225,0.0,0.0,65,0.00,,,0.00,WUHU21623XXSP,2013-05-18 12:55:00,
2013-05-18 06:00:00,47.3,36.6,29.94,SW,225,0.0,0.0,66,0.00,,,0.00,WUHU21623XXSP,2013-05-18 13:00:00,
2013-05-18 06:05:00,47.1,36.4,29.94,SW,225,0.0,0.0,66,0.00,,,0.00,WUHU21623XXSP,2013-05-18 13:05:00,
2013-05-18 06:10:00,47.1,36.8,29.94,SW,225,0.0,0.0,67,0.00,,,0.00,WUHU21623XXSP,2013-05-18 13:10:00,
2013-05-18 06:15:00,46.9,37.0,29.94,SW,225,1.3,1.3,68,0.00,,,0.00,WUHU21623XXSP,2013-05-18 13:15:00,
2013-05-18 06:20:00,46.9,37.0,29.94,SW,225,0.0,4.5,68,0.00,,,0.00,WUHU21623XXSP,2013-05-18 13:20:00,
2013-05-18 06:25:00,46.9,37.0,29.94,SW,225,0.0,4.5,68,0.00,,,0.00,WUHU21623XXSP,2013-05-18 13:25:00,
2013-05-18 06:30:00,47.3,38.8,29.95,SW,225,4.5,5.4,72,0.00,,,0.00,WUHU21623XXSP,2013-05-18 13:30:00,
2013-05-18 06:35:00,47.1,39.7,29.95,SW,225,4.5,6.0,75,0.00,,,0.00,WUHU21623XXSP,2013-05-18 13:35:00,
2013-05-18 06:40:00,47.1,40.3,29.95,SW,225,4.5,6.7,77,0.00,,,0.00,WUHU21623XXSP,2013-05-18 13:40:00,
2013-05-18 06:45:00,47.3,40.8,29.95,SW,225,0.0,6.7,78,0.00,,,0.00,WUHU21623XXSP,2013-05-18 13:45:00,
2013-05-18 06:50:00,47.6,41.1,29.96,SW,225,0.0,5.4,78,0.00,,,0.00,WUHU21623XXSP,2013-05-18 13:50:00,
2013-05-18 06:55:00,47.8,41.6,29.96,SW,225,4.7,4.7,79,0.00,,,0.00,WUHU21623XXSP,2013-05-18 13:55:00,
2013-05-18 07:00:00,48.2,42.4,29.96,SW,225,4.9,6.3,80,0.00,,,0.00,WUHU21623XXSP,2013-05-18 14:00:00,
2013-05-18 07:05:00,48.4,42.5,29.96,SW,225,0.0,6.3,80,0.00,,,0.00,WUHU21623XXSP,2013-05-18 14:05:00,
2013-05-18 07:10:00,48.9,43.3,29.97,SW,225,0.0,5.6,81,0.00,,,0.00,WUHU21623XXSP,2013-05-18 14:10:00,
2013-05-18 07:15:00,48.9,43.3,29.97,SW,225,0.0,0.0,81,0.00,,,0.00,WUHU21623XXSP,2013-05-18 14:15:00,
2013-05-18 07:20:00,49.4,43.8,29.97,WSW,247,0.0,4.9,81,0.00,,,0.00,WUHU21623XXSP,2013-05-18 14:20:00,
2013-05-18 07:25:00,50.2,44.3,29.97,WSW,247,9.2,11.0,80,0.00,,,0.00,WUHU21623XXSP,2013-05-18 14:25:00,
2013-05-18 07:30:00,50.3,43.8,29.97,WSW,247,8.5,11.0,78,0.00,,,0.00,WUHU21623XXSP,2013-05-18 14:30:00,
2013-05-18 07:35:00,50.9,43.7,29.98,SW,225,7.2,10.5,76,0.00,,,0.00,WUHU21623XXSP,2013-05-18 14:35:00,
2013-05-18 07:40:00,51.2,44.0,29.97,WSW,247,6.5,8.3,76,0.00,,,0.00,WUHU21623XXSP,2013-05-18 14:40:00,
2013-05-18 07:45:00,51.2,43.6,29.97,WSW,247,8.3,9.8,75,0.00,,,0.00,WUHU21623XXSP,2013-05-18 14:45:00,
2013-05-18 07:50:00,51.4,43.5,29.98,SW,225,10.1,11.6,74,0.00,,,0.00,WUHU21623XXSP,2013-05-18 14:50:00,
2013-05-18 07:55:00,51.8,43.9,29.98,SSW,202,8.3,11.6,74,0.00,,,0.00,WUHU21623XXSP,2013-05-18 14:55:00,
2013-05-18 08:00:00,51.8,43.5,29.98,SW,225,6.7,11.6,73,0.00,,,0.00,WUHU21623XXSP,2013-05-18 15:00:00,
2013-05-18 08:05:00,51.8,43.2,29.97,SW,225,7.2,11.0,72,0.00,,,0.00,WUHU21623XXSP,2013-05-18 15:05:00,
2013-05-18 08:10:00,52.0,43.4,29.98,SW,225,8.7,11.0,72,0.00,,,0.00,WUHU21623XXSP,2013-05-18 15:10:00,
2013-05-18 08:15:00,52.3,43.3,29.98,SW,225,7.6,11.0,71,0.00,,,0.00,WUHU21623XXSP,2013-05-18 15:15:00,
2013-05-18 08:20:00,52.1,43.1,29.98,SW,225,4.5,11.4,71,0.00,,,0.00,WUHU21623XXSP,2013-05-18 15:20:00,
2013-05-18 08:25:00,52.9,43.9,29.98,WSW,247,8.7,11.4,71,0.00,,,0.00,WUHU21623XXSP,2013-05-18 15:25:00,
2013-05-18 08:30:00,53.2,43.8,29.98,West,270,0.0,10.5,70,0.00,,,0.00,WUHU21623XXSP,2013-05-18 15:30:00,
2013-05-18 08:35:00,53.8,43.6,29.98,West,270,6.5,10.5,68,0.00,,,0.00,WUHU21623XXSP,2013-05-18 15:35:00,
2013-05-18 08:40:00,53.9,43.7,29.98,SW,225,5.1,9.8,68,0.00,,,0.00,WUHU21623XXSP,2013-05-18 15:40:00,
2013-05-18 08:45:00,54.5,44.3,29.97,WSW,247,6.7,9.2,68,0.00,,,0.00,WUHU21623XXSP,2013-05-18 15:45:00,
2013-05-18 08:50:00,55.0,44.4,29.98,West,270,5.4,10.1,67,0.00,,,0.00,WUHU21623XXSP,2013-05-18 15:50:00,
2013-05-18 08:55:00,55.6,44.5,29.98,West,270,4.5,10.1,66,0.00,,,0.00,WUHU21623XXSP,2013-05-18 15:55:00,
2013-05-18 09:00:00,55.9,44.4,29.98,SW,225,0.0,10.1,65,0.00,,,0.00,WUHU21623XXSP,2013-05-18 16:00:00,
2013-05-18 09:05:00,55.6,44.1,29.98,SW,225,8.5,11.9,65,0.00,,,0.00,WUHU21623XXSP,2013-05-18 16:05:00,
2013-05-18 09:10:00,55.4,44.0,29.98,SW,225,10.1,11.9,65,0.00,,,0.00,WUHU21623XXSP,2013-05-18 16:10:00,
2013-05-18 09:15:00,55.9,44.4,29.99,SW,225,5.4,14.8,65,0.00,,,0.00,WUHU21623XXSP,2013-05-18 16:15:00,
2013-05-18 09:20:00,55.9,44.4,29.99,SW,225,4.9,14.8,65,0.00,,,0.00,WUHU21623XXSP,2013-05-18 16:20:00,
2013-05-18 09:25:00,56.5,44.6,29.99,WSW,247,2.5,9.8,64,0.00,,,0.00,WUHU21623XXSP,2013-05-18 16:25:00,
2013-05-18 09:30:00,56.8,44.5,29.99,SW,225,5.1,11.6,63,0.00,,,0.00,WUHU21623XXSP,2013-05-18 16:30:00,
2013-05-18 09:35:00,56.8,44.5,29.98,SW,225,0.0,12.1,63,0.00,,,0.00,WUHU21623XXSP,2013-05-18 16:35:00,
2013-05-18 09:40:00,57.5,44.7,29.98,WNW,292,11.4,12.5,62,0.00,,,0.00,WUHU21623XXSP,2013-05-18 16:40:00,
2013-05-18 09:45:00,58.1,44.8,29.99,WSW,247,2.0,12.5,61,0.00,,,0.00,WUHU21623XXSP,2013-05-18 16:45:00,
2013-05-18 09:50:00,58.1,44.4,29.99,WSW,247,1.6,9.8,60,0.00,,,0.00,WUHU21623XXSP,2013-05-18 16:50:00,
2013-05-18 09:55:00,58.3,44.6,29.99,WSW,247,10.7,10.7,60,0.00,,,0.00,WUHU21623XXSP,2013-05-18 16:55:00,
2013-05-18 10:00:00,58.6,44.9,29.99,SW,225,4.3,10.7,60,0.00,,,0.00,WUHU21623XXSP,2013-05-18 17:00:00,
2013-05-18 10:05:00,59.3,45.5,29.99,West,270,8.1,12.5,60,0.00,,,0.00,WUHU21623XXSP,2013-05-18 17:05:00,
2013-05-18 10:10:00,60.2,45.5,29.99,WSW,247,9.8,12.5,58,0.00,,,0.00,WUHU21623XXSP,2013-05-18 17:10:00,
2013-05-18 10:15:00,60.2,45.0,29.99,SSW,202,0.0,11.6,57,0.00,,,0.00,WUHU21623XXSP,2013-05-18 17:15:00,
2013-05-18 10:20:00,61.0,45.3,29.99,SW,225,7.6,11.2,56,0.00,,,0.00,WUHU21623XXSP,2013-05-18 17:20:00,
2013-05-18 10:25:00,60.8,45.1,29.99,WSW,247,8.3,11.2,56,0.00,,,0.00,WUHU21623XXSP,2013-05-18 17:25:00,
2013-05-18 10:30:00,61.1,45.4,29.99,WNW,292,5.8,14.8,56,0.00,,,0.00,WUHU21623XXSP,2013-05-18 17:30:00,
2013-05-18 10:35:00,61.1,45.4,29.99,SSW,202,8.1,14.8,56,0.00,,,0.00,WUHU21623XXSP,2013-05-18 17:35:00,
2013-05-18 10:40:00,61.3,45.1,29.99,SSW,202,10.3,14.8,55,0.00,,,0.00,WUHU21623XXSP,2013-05-18 17:40:00,
2013-05-18 10:45:00,62.6,46.3,29.99,WNW,292,0.0,14.8,55,0.00,,,0.00,WUHU21623XXSP,2013-05-18 17:45:00,
2013-05-18 10:50:00,62.2,45.4,29.99,SSW,202,5.6,12.8,54,0.00,,,0.00,WUHU21623XXSP,2013-05-18 17:50:00,
2013-05-18 10:55:00,62.6,45.8,29.99,SW,225,5.8,12.8,54,0.00,,,0.00,WUHU21623XXSP,2013-05-18 17:55:00,
2013-05-18 11:00:00,62.9,45.6,29.99,SW,225,8.1,15.4,53,0.00,,,0.00,WUHU21623XXSP,2013-05-18 18:00:00,
2013-05-18 11:05:00,63.8,46.4,29.99,SSW,202,9.8,15.4,53,0.00,,,0.00,WUHU21623XXSP,2013-05-18 18:05:00,
2013-05-18 11:10:00,64.4,46.4,29.99,WSW,247,10.3,13.0,52,0.00,,,0.00,WUHU21623XXSP,2013-05-18 18:10:00,
2013-05-18 11:15:00,64.6,46.1,29.99,WSW,247,11.6,13.2,51,0.00,,,0.00,WUHU21623XXSP,2013-05-18 18:15:00,
2013-05-18 11:20:00,65.1,46.6,29.99,SW,225,1.8,13.2,51,0.00,,,0.00,WUHU21623XXSP,2013-05-18 18:20:00,
2013-05-18 11:25:00,65.6,45.9,29.99,SSW,202,6.3,13.0,49,0.00,,,0.00,WUHU21623XXSP,2013-05-18 18:25:00,
2013-05-18 11:30:00,65.8,45.6,29.99,SW,225,3.4,13.0,48,0.00,,,0.00,WUHU21623XXSP,2013-05-18 18:30:00,
2013-05-18 11:35:00,65.8,46.1,29.99,WSW,247,6.5,12.1,49,0.00,,,0.00,WUHU21623XXSP,2013-05-18 18:35:00,
2013-05-18 11:40:00,66.2,45.9,29.99,SSW,202,5.8,12.3,48,0.00,,,0.00,WUHU21623XXSP,2013-05-18 18:40:00,
2013-05-18 11:45:00,66.7,45.8,29.98,SSW,202,0.0,13.0,47,0.00,,,0.00,WUHU21623XXSP,2013-05-18 18:45:00,
2013-05-18 11:50:00,66.7,46.4,29.99,West,270,7.2,13.4,48,0.00,,,0.00,WUHU21623XXSP,2013-05-18 18:50:00,
2013-05-18 11:55:00,67.4,46.5,29.98,West,270,9.4,13.4,47,0.00,,,0.00,WUHU21623XXSP,2013-05-18 18:55:00,
2013-05-18 12:00:00,67.6,46.1,29.99,SSW,202,0.0,12.5,46,0.00,,,0.00,WUHU21623XXSP,2013-05-18 19:00:00,
2013-05-18 12:05:00,67.8,46.2,29.98,SW,225,6.9,12.8,46,0.00,,,0.00,WUHU21623XXSP,2013-05-18 19:05:00,
2013-05-18 12:10:00,68.9,47.2,29.98,WNW,292,4.9,12.8,46,0.00,,,0.00,WUHU21623XXSP,2013-05-18 19:10:00,
2013-05-18 12:15:00,69.4,46.5,29.98,SW,225,8.9,15.2,44,0.00,,,0.00,WUHU21623XXSP,2013-05-18 19:15:00,
2013-05-18 12:20:00,69.2,46.3,29.98,West,270,9.4,15.2,44,0.00,,,0.00,WUHU21623XXSP,2013-05-18 19:20:00,
2013-05-18 12:25:00,70.0,46.4,29.98,WSW,247,8.1,12.5,43,0.00,,,0.00,WUHU21623XXSP,2013-05-18 19:25:00,
2013-05-18 12:30:00,70.0,46.4,29.99,WSW,247,15.7,15.7,43,0.00,,,0.00,WUHU21623XXSP,2013-05-18 19:30:00,
2013-05-18 12:35:00,70.3,46.7,29.99,WSW,247,12.1,15.7,43,0.00,,,0.00,WUHU21623XXSP,2013-05-18 19:35:00,
2013-05-18 12:40:00,69.6,46.0,29.99,SE,135,4.7,13.0,43,0.00,,,0.00,WUHU21623XXSP,2013-05-18 19:40:00,
2013-05-18 12:45:00,70.0,46.4,29.98,SW,225,9.2,13.0,43,0.00,,,0.00,WUHU21623XXSP,2013-05-18 19:45:00,
2013-05-18 12:50:00,69.8,46.2,29.98,WSW,247,12.5,13.6,43,0.00,,,0.00,WUHU21623XXSP,2013-05-18 19:50:00,
2013-05-18 12:55:00,70.9,47.2,29.98,SSW,202,11.0,13.6,43,0.00,,,0.00,WUHU21623XXSP,2013-05-18 19:55:00,
2013-05-18 13:00:00,70.9,46.6,29.98,WSW,247,11.9,15.2,42,0.00,,,0.00,WUHU21623XXSP,2013-05-18 20:00:00,
2013-05-18 13:05:00,70.9,47.2,29.98,SW,225,5.4,16.3,43,0.00,,,0.00,WUHU21623XXSP,2013-05-18 20:05:00,
2013-05-18 13:10:00,71.2,46.8,29.98,SW,225,4.9,16.3,42,0.00,,,0.00,WUHU21623XXSP,2013-05-18 20:10:00,
2013-05-18 13:15:00,70.9,46.6,29.98,WSW,247,11.9,13.4,42,0.00,,,0.00,WUHU21623XXSP,2013-05-18 20:15:00,
2013-05-18 13:20:00,71.2,46.8,29.98,WSW,247,12.5,14.8,42,0.00,,,0.00,WUHU21623XXSP,2013-05-18 20:20:00,
2013-05-18 13:25:00,71.8,46.7,29.98,SW,225,8.7,14.8,41,0.00,,,0.00,WUHU21623XXSP,2013-05-18 20:25:00,
2013-05-18 13:30:00,72.5,47.4,29.97,SW,225,8.3,12.5,41,0.00,,,0.00,WUHU21623XXSP,2013-05-18 20:30:00,
2013-05-18 13:35:00,72.8,47.6,29.97,WSW,247,8.9,12.5,41,0.00,,,0.00,WUHU21623XXSP,2013-05-18 20:35:00,
2013-05-18 13:40:00,72.3,46.5,29.97,SW,225,6.9,13.0,40,0.00,,,0.00,WUHU21623XXSP,2013-05-18 20:40:00,
2013-05-18 13:45:00,72.1,47.0,29.97,SW,225,7.6,13.4,41,0.00,,,0.00,WUHU21623XXSP,2013-05-18 20:45:00,
2013-05-18 13:50:00,72.8,47.6,29.97,WSW,247,7.8,13.6,41,0.00,,,0.00,WUHU21623XXSP,2013-05-18 20:50:00,
2013-05-18 13:55:00,73.9,48.0,29.97,West,270,6.7,17.2,40,0.00,,,0.00,WUHU21623XXSP,2013-05-18 20:55:00,
2013-05-18 14:00:00,73.6,47.7,29.97,WSW,247,0.0,17.2,40,0.00,,,0.00,WUHU21623XXSP,2013-05-18 21:00:00,
2013-05-18 14:05:00,74.1,47.4,29.97,SW,225,7.8,13.2,39,0.00,,,0.00,WUHU21623XXSP,2013-05-18 21:05:00,
2013-05-18 14:10:00,73.6,47.7,29.97,WNW,292,8.3,13.4,40,0.00,,,0.00,WUHU21623XXSP,2013-05-18 21:10:00,
2013-05-18 14:15:00,74.3,47.6,29.97,WSW,247,6.9,13.4,39,0.00,,,0.00,WUHU21623XXSP,2013-05-18 21:15:00,
2013-05-18 14:20:00,74.1,46.7,29.97,SW,225,12.5,13.6,38,0.00,,,0.00,WUHU21623XXSP,2013-05-18 21:20:00,
2013-05-18 14:25:00,74.3,47.6,29.97,WNW,292,4.7,13.6,39,0.00,,,0.00,WUHU21623XXSP,2013-05-18 21:25:00,
2013-05-18 14:30:00,74.8,48.1,29.97,SW,225,12.3,13.6,39,0.00,,,0.00,WUHU21623XXSP,2013-05-18 21:30:00,
2013-05-18 14:35:00,74.3,46.9,29.97,WSW,247,11.9,15.7,38,0.00,,,0.00,WUHU21623XXSP,2013-05-18 21:35:00,
2013-05-18 14:40:00,75.5,48.0,29.97,West,270,8.7,15.7,38,0.00,,,0.00,WUHU21623XXSP,2013-05-18 21:40:00,
2013-05-18 14:45:00,75.0,47.5,29.97,WNW,292,11.6,15.9,38,0.00,,,0.00,WUHU21623XXSP,2013-05-18 21:45:00,
2013-05-18 14:50:00,75.9,48.3,29.97,WNW,292,6.3,15.9,38,0.00,,,0.00,WUHU21623XXSP,2013-05-18 21:50:00,
2013-05-18 14:55:00,75.5,48.0,29.97,SW,225,2.2,15.0,38,0.00,,,0.00,WUHU21623XXSP,2013-05-18 21:55:00,
2013-05-18 15:00:00,75.0,46.8,29.97,SW,225,0.0,15.4,37,0.00,,,0.00,WUHU21623XXSP,2013-05-18 22:00:00,
2013-05-18 15:05:00,74.8,47.4,29.97,SW,225,15.4,15.4,38,0.00,,,0.00,WUHU21623XXSP,2013-05-18 22:05:00,
2013-05-18 15:10:00,74.8,47.4,29.97,SW,225,7.4,18.8,38,0.00,,,0.00,WUHU21623XXSP,2013-05-18 22:10:00,
2013-05-18 15:15:00,75.2,47.7,29.97,West,270,7.2,18.8,38,0.00,,,0.00,WUHU21623XXSP,2013-05-18 22:15:00,
2013-05-18 15:20:00,75.2,47.7,29.97,WSW,253,11.3,17.4,38,0.00,,,0.00,WUHU21623XXSP,2013-05-18 22:20:00,
2013-05-18 15:25:00,75.5,48.0,29.97,West,270,11.0,15.0,38,0.00,,,0.00,WUHU21623XXSP,2013-05-18 22:25:00,
2013-05-18 15:30:00,75.5,48.0,29.97,WSW,247,13.0,19.7,38,0.00,,,0.00,WUHU21623XXSP,2013-05-18 22:30:00,
2013-05-18 15:35:00,75.5,48.0,29.97,WSW,247,9.2,19.7,38,0.00,,,0.00,WUHU21623XXSP,2013-05-18 22:35:00,
2013-05-18 15:40:00,75.0,47.5,29.96,WSW,247,10.7,18.8,38,0.00,,,0.00,WUHU21623XXSP,2013-05-18 22:40:00,
2013-05-18 15:45:00,75.2,47.7,29.97,West,270,9.6,18.8,38,0.00,,,0.00,WUHU21623XXSP,2013-05-18 22:45:00,
2013-05-18 15:50:00,74.8,47.4,29.96,West,270,11.6,16.3,38,0.00,,,0.00,WUHU21623XXSP,2013-05-18 22:50:00,
2013-05-18 15:55:00,75.2,48.4,29.96,West,270,9.8,16.3,39,0.00,,,0.00,WUHU21623XXSP,2013-05-18 22:55:00,
2013-05-18 16:00:00,75.5,48.0,29.96,West,270,7.6,19.2,38,0.00,,,0.00,WUHU21623XXSP,2013-05-18 23:00:00,
2013-05-18 16:05:00,75.5,48.0,29.97,WSW,247,11.4,19.2,38,0.00,,,0.00,WUHU21623XXSP,2013-05-18 23:05:00,
2013-05-18 16:10:00,75.2,47.7,29.97,West,270,11.0,17.9,38,0.00,,,0.00,WUHU21623XXSP,2013-05-18 23:10:00,
2013-05-18 16:15:00,74.8,47.4,29.97,West,270,11.0,16.6,38,0.00,,,0.00,WUHU21623XXSP,2013-05-18 23:15:00,
2013-05-18 16:20:00,74.8,48.1,29.97,WNW,292,6.3,16.6,39,0.00,,,0.00,WUHU21623XXSP,2013-05-18 23:20:00,
2013-05-18 16:25:00,75.2,48.4,29.96,West,270,11.4,15.9,39,0.00,,,0.00,WUHU21623XXSP,2013-05-18 23:25:00,
2013-05-18 16:30:00,74.8,48.1,29.97,West,270,8.9,19.5,39,0.00,,,0.00,WUHU21623XXSP,2013-05-18 23:30:00,
2013-05-18 16:35:00,73.9,47.3,29.97,West,270,9.8,19.5,39,0.00,,,0.00,WUHU21623XXSP,2013-05-18 23:35:00,
2013-05-18 16:40:00,73.4,46.8,29.97,WSW,247,8.5,16.3,39,0.00,,,0.00,WUHU21623XXSP,2013-05-18 23:40:00,
2013-05-18 16:45:00,73.0,46.5,29.97,SW,225,11.9,16.8,39,0.00,,,0.00,WUHU21623XXSP,2013-05-18 23:45:00,
2013-05-18 16:50:00,72.8,47.0,29.96,WSW,247,10.3,16.8,40,0.00,,,0.00,WUHU21623XXSP,2013-05-18 23:50:00,
2013-05-18 16:55:00,73.0,46.5,29.96,WSW,247,8.9,16.3,39,0.00,,,0.00,WUHU21623XXSP,2013-05-18 23:55:00,
2013-05-18 17:00:00,73.0,46.5,29.96,WSW,247,10.1,18.6,39,0.00,,,0.00,WUHU21623XXSP,2013-05-19 00:00:00,
2013-05-18 17:05:00,73.0,46.5,29.96,WSW,247,9.6,18.6,39,0.00,,,0.00,WUHU21623XXSP,2013-05-19 00:05:00,
2013-05-18 17:10:00,73.4,46.1,29.96,WSW,253,11.8,16.1,38,0.00,,,0.00,WUHU21623XXSP,2013-05-19 00:10:00,
2013-05-18 17:15:00,72.8,45.6,29.96,WSW,247,16.3,17.2,38,0.00,,,0.00,WUHU21623XXSP,2013-05-19 00:15:00,
2013-05-18 17:20:00,72.5,45.3,29.96,West,270,7.6,18.6,38,0.00,,,0.00,WUHU21623XXSP,2013-05-19 00:20:00,
2013-05-18 17:25:00,72.1,45.6,29.96,WSW,247,17.9,20.1,39,0.00,,,0.00,WUHU21623XXSP,2013-05-19 00:25:00,
2013-05-18 17:30:00,72.1,45.6,29.96,SW,225,15.9,20.8,39,0.00,,,0.00,WUHU21623XXSP,2013-05-19 00:30:00,
2013-05-18 17:35:00,72.7,46.2,29.95,SW,225,18.1,20.8,39,0.00,,,0.00,WUHU21623XXSP,2013-05-19 00:35:00,
2013-05-18 17:40:00,73.0,46.5,29.96,WSW,247,15.9,19.0,39,0.00,,,0.00,WUHU21623XXSP,2013-05-19 00:40:00,
2013-05-18 17:45:00,73.0,46.5,29.96,SW,225,8.7,17.4,39,0.00,,,0.00,WUHU21623XXSP,2013-05-19 00:45:00,
2013-05-18 17:50:00,73.2,45.9,29.95,WSW,247,7.6,17.9,38,0.00,,,0.00,WUHU21623XXSP,2013-05-19 00:50:00,
2013-05-18 17:55:00,73.2,45.9,29.96,WSW,247,12.5,17.9,38,0.00,,,0.00,WUHU21623XXSP,2013-05-19 00:55:00,
2013-05-18 18:00:00,73.4,46.1,29.96,West,270,10.7,16.3,38,0.00,,,0.00,WUHU21623XXSP,2013-05-19 01:00:00,
2013-05-18 18:05:00,73.4,45.4,29.95,West,270,11.6,16.1,37,0.00,,,0.00,WUHU21623XXSP,2013-05-19 01:05:00,
2013-05-18 18:10:00,73.4,45.4,29.95,WSW,255,11.5,16.1,37,0.00,,,0.00,WUHU21623XXSP,2013-05-19 01:10:00,
2013-05-18 18:15:00,73.4,45.4,29.96,WSW,252,12.3,15.9,37,0.00,,,0.00,WUHU21623XXSP,2013-05-19 01:15:00,
2013-05-18 18:20:00,73.4,45.4,29.96,WSW,248,11.9,15.0,37,0.00,,,0.00,WUHU21623XXSP,2013-05-19 01:20:00,
2013-05-18 18:25:00,73.4,45.4,29.96,WSW,247,12.8,16.6,37,0.00,,,0.00,WUHU21623XXSP,2013-05-19 01:25:00,
2013-05-18 18:30:00,73.0,45.8,29.96,SW,225,9.8,16.6,38,0.00,,,0.00,WUHU21623XXSP,2013-05-19 01:30:00,
2013-05-18 18:35:00,73.2,45.9,29.96,WSW,247,12.8,16.1,38,0.00,,,0.00,WUHU21623XXSP,2013-05-19 01:35:00,
2013-05-18 18:40:00,73.2,45.9,29.96,WSW,247,9.4,16.1,38,0.00,,,0.00,WUHU21623XXSP,2013-05-19 01:40:00,
2013-05-18 18:45:00,73.0,46.5,29.96,SSW,202,12.1,15.2,39,0.00,,,0.00,WUHU21623XXSP,2013-05-19 01:45:00,
2013-05-18 18:50:00,72.8,47.0,29.96,SW,225,13.6,15.0,40,0.00,,,0.00,WUHU21623XXSP,2013-05-19 01:50:00,
2013-05-18 18:55:00,72.5,47.4,29.96,SW,225,8.7,15.0,41,0.00,,,0.00,WUHU21623XXSP,2013-05-19 01:55:00,
2013-05-18 19:00:00,72.1,47.0,29.96,SW,225,10.5,14.8,41,0.02,,,0.02,WUHU21623XXSP,2013-05-19 02:00:00,
2013-05-18 19:05:00,71.9,47.5,29.96,SW,225,11.2,15.2,42,0.02,,,0.02,WUHU21623XXSP,2013-05-19 02:05:00,
2013-05-18 19:10:00,71.2,47.5,29.96,SW,225,11.4,15.2,43,0.02,,,0.02,WUHU21623XXSP,2013-05-19 02:10:00,
2013-05-18 19:15:00,70.1,47.1,29.95,WSW,247,10.7,13.6,44,0.02,,,0.02,WUHU21623XXSP,2013-05-19 02:15:00,
2013-05-18 19:20:00,70.7,47.7,29.95,WSW,247,12.1,13.6,44,0.02,,,0.02,WUHU21623XXSP,2013-05-19 02:20:00,
2013-05-18 19:25:00,70.7,47.7,29.95,WSW,247,10.1,15.9,44,0.02,,,0.02,WUHU21623XXSP,2013-05-19 02:25:00,
2013-05-18 19:30:00,70.5,47.5,29.95,WSW,247,10.7,16.3,44,0.02,,,0.02,WUHU21623XXSP,2013-05-19 02:30:00,
2013-05-18 19:35:00,70.3,47.9,29.95,WSW,248,12.1,16.3,45,0.02,,,0.02,WUHU21623XXSP,2013-05-19 02:35:00,
2013-05-18 19:40:00,70.0,47.6,29.95,WSW,247,10.3,15.2,45,0.02,,,0.02,WUHU21623XXSP,2013-05-19 02:40:00,
2013-05-18 19:45:00,69.4,47.1,29.96,WSW,247,10.1,13.0,45,0.02,,,0.02,WUHU21623XXSP,2013-05-19 02:45:00,
2013-05-18 19:50:00,69.2,46.9,29.96,SW,225,7.8,12.1,45,0.02,,,0.02,WUHU21623XXSP,2013-05-19 02:50:00,
2013-05-18 19:55:00,68.9,46.6,29.96,SW,225,0.0,11.6,45,0.02,,,0.02,WUHU21623XXSP,2013-05-19 02:55:00,
2013-05-18 20:00:00,68.7,46.5,29.97,SSW,202,6.7,8.5,45,0.00,,,0.02,WUHU21623XXSP,2013-05-19 03:00:00,
2013-05-18 20:05:00,68.3,46.7,29.97,SSW,202,7.4,9.4,46,0.00,,,0.02,WUHU21623XXSP,2013-05-19 03:05:00,
2013-05-18 20:10:00,67.6,46.1,29.97,SSW,202,8.3,9.4,46,0.00,,,0.02,WUHU21623XXSP,2013-05-19 03:10:00,
2013-05-18 20:15:00,67.3,45.8,29.96,SW,225,7.2,9.4,46,0.00,,,0.02,WUHU21623XXSP,2013-05-19 03:15:00,
2013-05-18 20:20:00,66.7,45.8,29.96,SW,225,6.9,9.8,47,0.00,,,0.02,WUHU21623XXSP,2013-05-19 03:20:00,
2013-05-18 20:25:00,66.2,45.9,29.96,WSW,247,7.6,9.8,48,0.00,,,0.02,WUHU21623XXSP,2013-05-19 03:25:00,
2013-05-18 20:30:00,65.6,45.4,29.96,WSW,247,8.5,9.4,48,0.00,,,0.02,WUHU21623XXSP,2013-05-19 03:30:00,
2013-05-18 20:35:00,65.6,45.4,29.96,WSW,247,5.1,9.4,48,0.00,,,0.02,WUHU21623XXSP,2013-05-19 03:35:00,
2013-05-18 20:40:00,65.8,45.6,29.97,SW,225,0.0,8.5,48,0.00,,,0.02,WUHU21623XXSP,2013-05-19 03:40:00,
2013-05-18 20:45:00,65.8,45.0,29.97,SW,225,0.0,4.9,47,0.00,,,0.02,WUHU21623XXSP,2013-05-19 03:45:00,
2013-05-18 20:50:00,65.6,44.8,29.97,SW,225,0.0,0.0,47,0.00,,,0.02,WUHU21623XXSP,2013-05-19 03:50:00,
2013-05-18 20:55:00,65.3,44.5,29.97,SW,225,0.0,0.0,47,0.00,,,0.02,WUHU21623XXSP,2013-05-19 03:55:00,
2013-05-18 21:00:00,64.7,44.6,29.97,WSW,247,5.4,6.7,48,0.00,,,0.02,WUHU21623XXSP,2013-05-19 04:00:00,
2013-05-18 21:01:00,64.7,44.6,29.97,WSW,247,4.9,6.7,48,0.00,,,0.02,WUHU21623XXSP,2013-05-19 04:01:00,
2013-05-18 21:06:00,64.2,44.1,29.97,WSW,247,6.7,7.4,48,0.00,,,0.02,WUHU21623XXSP,2013-05-19 04:06:00,
2013-05-18 21:11:00,63.7,44.2,29.97,WSW,247,4.7,7.4,49,0.00,,,0.02,WUHU21623XXSP,2013-05-19 04:11:00,
2013-05-18 21:16:00,63.3,43.8,29.97,SW,225,4.7,7.8,49,0.00,,,0.02,WUHU21623XXSP,2013-05-19 04:16:00,
2013-05-18 21:21:00,63.1,44.2,29.97,SW,225,0.0,7.8,50,0.00,,,0.02,WUHU21623XXSP,2013-05-19 04:21:00,
2013-05-18 21:26:00,62.8,43.9,29.97,SW,225,0.0,6.0,50,0.00,,,0.02,WUHU21623XXSP,2013-05-19 04:26:00,
2013-05-18 21:31:00,62.2,43.9,29.97,SW,225,0.0,0.0,51,0.00,,,0.02,WUHU21623XXSP,2013-05-19 04:31:00,
2013-05-18 21:36:00,61.7,43.4,29.97,WSW,247,0.0,4.3,51,0.00,,,0.02,WUHU21623XXSP,2013-05-19 04:36:00,
2013-05-18 21:41:00,61.3,43.0,29.97,West,270,0.0,5.6,51,0.00,,,0.02,WUHU21623XXSP,2013-05-19 04:41:00,
2013-05-18 21:46:00,61.1,42.9,29.97,West,270,0.0,5.6,51,0.00,,,0.02,WUHU21623XXSP,2013-05-19 04:46:00,
2013-05-18 21:51:00,61.0,42.8,29.97,West,270,0.0,4.7,51,0.00,,,0.02,WUHU21623XXSP,2013-05-19 04:51:00,
2013-05-18 21:56:00,60.8,43.1,29.97,West,270,0.0,4.9,52,0.00,,,0.02,WUHU21623XXSP,2013-05-19 04:56:00,
2013-05-18 22:01:00,60.4,42.2,29.97,West,270,0.0,4.9,51,0.00,,,0.02,WUHU21623XXSP,2013-05-19 05:01:00,
2013-05-18 22:06:00,60.4,42.2,29.97,West,270,0.0,0.0,51,0.00,,,0.02,WUHU21623XXSP,2013-05-19 05:06:00,
2013-05-18 22:11:00,60.1,41.9,29.97,West,270,0.0,0.0,51,0.00,,,0.02,WUHU21623XXSP,2013-05-19 05:11:00,
2013-05-18 22:16:00,59.7,41.6,29.97,West,270,0.0,0.0,51,0.00,,,0.02,WUHU21623XXSP,2013-05-19 05:16:00,
2013-05-18 22:21:00,59.5,41.9,29.97,West,270,0.0,0.0,52,0.00,,,0.02,WUHU21623XXSP,2013-05-19 05:21:00,
2013-05-18 22:26:00,59.5,41.4,29.97,West,270,4.9,6.9,51,0.00,,,0.02,WUHU21623XXSP,2013-05-19 05:26:00,
2013-05-18 22:31:00,59.5,41.9,29.97,West,270,6.3,8.3,52,0.00,,,0.02,WUHU21623XXSP,2013-05-19 05:31:00,
2013-05-18 22:36:00,59.5,41.9,29.97,WSW,247,6.5,8.5,52,0.00,,,0.02,WUHU21623XXSP,2013-05-19 05:36:00,
2013-05-18 22:41:00,59.5,42.4,29.97,WSW,247,0.0,8.5,53,0.00,,,0.02,WUHU21623XXSP,2013-05-19 05:41:00,
2013-05-18 22:46:00,59.2,42.1,29.97,SW,225,0.0,7.6,53,0.00,,,0.02,WUHU21623XXSP,2013-05-19 05:46:00,
2013-05-18 22:51:00,59.0,41.9,29.97,SW,225,0.0,0.0,53,0.00,,,0.02,WUHU21623XXSP,2013-05-19 05:51:00,
2013-05-18 22:56:00,58.4,41.4,29.97,SW,225,0.0,0.0,53,0.00,,,0.02,WUHU21623XXSP,2013-05-19 05:56:00,
2013-05-18 23:01:00,57.7,41.2,29.97,SSW,202,0.0,0.0,54,0.00,,,0.02,WUHU21623XXSP,2013-05-19 06:01:00,
2013-05-18 23:06:00,57.5,41.0,29.97,SSW,202,0.0,0.0,54,0.00,,,0.02,WUHU21623XXSP,2013-05-19 06:06:00,
2013-05-18 23:11:00,57.5,41.5,29.96,WSW,247,0.0,0.0,55,0.00,,,0.02,WUHU21623XXSP,2013-05-19 06:11:00,
2013-05-18 23:16:00,57.4,40.9,29.96,West,270,0.0,0.0,54,0.00,,,0.02,WUHU21623XXSP,2013-05-19 06:16:00,
2013-05-18 23:21:00,56.8,40.4,29.96,West,270,0.0,4.9,54,0.00,,,0.02,WUHU21623XXSP,2013-05-19 06:21:00,
2013-05-18 23:26:00,56.8,40.9,29.96,West,270,0.0,4.9,55,0.00,,,0.02,WUHU21623XXSP,2013-05-19 06:26:00,
2013-05-18 23:31:00,56.8,40.9,29.96,West,270,0.0,0.0,55,0.00,,,0.02,WUHU21623XXSP,2013-05-19 06:31:00,
2013-05-18 23:36:00,56.8,40.9,29.96,SE,135,0.0,0.0,55,0.00,,,0.02,WUHU21623XXSP,2013-05-19 06:36:00,
2013-05-18 23:41:00,56.8,40.9,29.96,SSW,202,0.0,0.0,55,0.00,,,0.02,WUHU21623XXSP,2013-05-19 06:41:00,
2013-05-18 23:46:00,56.6,40.7,29.96,WSW,247,4.3,8.5,55,0.00,,,0.02,WUHU21623XXSP,2013-05-19 06:46:00,
2013-05-18 23:51:00,56.3,40.4,29.96,WSW,247,0.0,8.5,55,0.00,,,0.02,WUHU21623XXSP,2013-05-19 06:51:00,
2013-05-18 23:56:00,55.9,40.5,29.96,WSW,247,0.0,5.8,56,0.00,,,0.02,WUHU21623XXSP,2013-05-19 06:56:00,